Boulder City, NV

3:09 PM PST on November 24, 2017 (GMT -0800)
Boulder City

Weather History for KBVU - August, 2013

Change the Weather History Date:

Thursday, August 22, 2013

  Actual Average (KLAS) Record (KLAS)
Temperature  
Mean Temperature 89 °F -  
Max Temperature 100 °F 100 °F 110 °F (1939)
Min Temperature 78 °F 73 °F 60 °F (1968)
Cooling Degree Days 24    
Growing Degree Days 39 (Base 50)    
Moisture  
Dew Point 48 °F    
Average Humidity 25    
Maximum Humidity 42    
Minimum Humidity 14    
Precipitation  
Precipitation 0.00 in - - ()
Sea Level Pressure  
Sea Level Pressure 29.92 in    
Wind  
Wind Speed 5 mph (South)    
Max Wind Speed 20 mph    
Max Gust Speed 25 mph    
Visibility 10 miles    
Events Thunderstorm    
Averages and records for this station are not official NWS values.
T = Trace of Precipitation, MM = Missing Value Source: NWS Daily Summary

Daily Weather History Graph

Daily Weather History Graph

Search for Another Location

Airport or City:

Trip Planner

Search our weather history database for the weather conditions in past years. The results will help you decide how hot, cold, wet, or windy it might be!

Date:

Astronomy

Aug. 22, 2013 Rise Set
Actual Time 6:03 AM PDT 7:20 PM PDT
Civil Twilight 5:37 AM PDT 7:46 PM PDT
Nautical Twilight 5:05 AM PDT 8:18 PM PDT
Astronomical Twilight 4:31 AM PDT 8:51 PM PDT
Moon 8:13 PM PDT (8/22) 7:51 AM PDT (8/22)
Length of Visible Light 14h 09m
Length of Day
13h 16m
Waning Gibbous, 96% of the Moon is Illuminated
Aug 22
Waning Gibbous
Aug 28
Last Quarter
Sep 5
New
Sep 12
First Quarter
Sep 19
Full

Hourly Weather History & Observations

Time (PDT) Temp. Heat Index Dew Point Humidity Pressure Visibility Wind Dir Wind Speed Gust Speed Precip Events Conditions
12:15 AM 84.2 °F 82.8 °F 53.6 °F 35% 29.93 in 10.0 mi Calm Calm - N/A   Clear
12:35 AM 91.4 °F - 46.4 °F 21% 29.93 in 10.0 mi SE 5.8 mph - N/A   Clear
12:55 AM 91.4 °F - 46.4 °F 21% 29.93 in 10.0 mi SE 6.9 mph - N/A   Clear
1:15 AM 89.6 °F - 46.4 °F 22% 29.93 in 10.0 mi NW 3.5 mph - N/A   Clear
1:35 AM 91.4 °F - 44.6 °F 20% 29.92 in 10.0 mi SSW 3.5 mph - N/A   Clear
1:55 AM 86.0 °F - 50.0 °F 29% 29.92 in 10.0 mi Calm Calm - N/A   Clear
2:15 AM 86.0 °F - 51.8 °F 31% 29.92 in 10.0 mi Calm Calm - N/A   Clear
2:35 AM 86.0 °F 84.2 °F 53.6 °F 33% 29.93 in 10.0 mi ENE 3.5 mph - N/A   Clear
2:55 AM 84.2 °F 82.8 °F 53.6 °F 35% 29.93 in 10.0 mi NNE 5.8 mph - N/A   Clear
3:15 AM 84.2 °F 82.8 °F 53.6 °F 35% 29.93 in 10.0 mi NE 5.8 mph - N/A   Clear
3:35 AM 84.2 °F - 51.8 °F 33% 29.93 in 10.0 mi NNE 3.5 mph - N/A   Clear
3:55 AM 82.4 °F - 51.8 °F 35% 29.93 in 10.0 mi NE 3.5 mph - N/A   Clear
4:15 AM 82.4 °F - 51.8 °F 35% 29.93 in 10.0 mi ENE 4.6 mph - N/A   Clear
4:35 AM 80.6 °F 80.3 °F 53.6 °F 39% 29.93 in 10.0 mi ENE 3.5 mph - N/A   Clear
4:55 AM 82.4 °F - 50.0 °F 32% 29.93 in 10.0 mi East 5.8 mph - N/A   Clear
5:15 AM 82.4 °F - 51.8 °F 35% 29.93 in 10.0 mi ENE 3.5 mph - N/A   Clear
5:35 AM 80.6 °F - 50.0 °F 34% 29.94 in 10.0 mi NNE 3.5 mph - N/A   Clear
5:55 AM 82.4 °F - 48.2 °F 30% 29.94 in 10.0 mi Calm Calm - N/A   Clear
6:15 AM 82.4 °F - 48.2 °F 30% 29.95 in 10.0 mi Calm Calm - N/A   Clear
6:35 AM 78.8 °F - 51.8 °F 39% 29.95 in 10.0 mi NE 4.6 mph - N/A   Clear
6:55 AM 78.8 °F - 53.6 °F 42% 29.96 in 10.0 mi ENE 4.6 mph - N/A   Clear
7:15 AM 80.6 °F - 50.0 °F 34% 29.97 in 10.0 mi Calm Calm - N/A   Clear
7:35 AM 86.0 °F - 46.4 °F 25% 29.97 in 10.0 mi Calm Calm - N/A   Clear
7:55 AM 86.0 °F - 48.2 °F 27% 29.97 in 10.0 mi Calm Calm - N/A   Clear
8:15 AM 86.0 °F - 44.6 °F 23% 29.97 in 10.0 mi Calm Calm - N/A   Clear
8:35 AM 87.8 °F - 46.4 °F 24% 29.98 in 10.0 mi West 5.8 mph - N/A   Clear
8:55 AM 89.6 °F - 44.6 °F 21% 29.98 in 10.0 mi Calm Calm - N/A   Clear
9:15 AM 89.6 °F - 44.6 °F 21% 29.98 in 10.0 mi SSW 3.5 mph - N/A   Clear
9:35 AM 91.4 °F - 44.6 °F 20% 29.98 in 10.0 mi Calm Calm - N/A   Clear
9:55 AM 93.2 °F - 44.6 °F 19% 29.98 in 10.0 mi Calm Calm - N/A   Clear
10:15 AM 93.2 °F - 44.6 °F 19% 29.98 in 10.0 mi Calm Calm - N/A   Clear
10:35 AM 95.0 °F - 42.8 °F 16% 29.98 in 10.0 mi Calm Calm - N/A   Clear
10:55 AM 95.0 °F - 42.8 °F 16% 29.98 in 10.0 mi SE 5.8 mph - N/A   Clear
11:15 AM 95.0 °F - 42.8 °F 16% 29.97 in 10.0 mi NE 3.5 mph - N/A   Clear
11:35 AM 96.8 °F - 48.2 °F 19% 29.97 in 10.0 mi SSE 5.8 mph - N/A   Clear
11:55 AM 96.8 °F - 46.4 °F 18% 29.96 in 10.0 mi ESE 6.9 mph - N/A   Clear
12:15 PM 98.6 °F - 46.4 °F 17% 29.95 in 10.0 mi ESE 5.8 mph - N/A   Clear
12:35 PM 98.6 °F - 44.6 °F 16% 29.94 in 10.0 mi ESE 6.9 mph - N/A   Clear
12:55 PM 100.4 °F - 46.4 °F 16% 29.94 in 10.0 mi SE 9.2 mph 18.4 mph N/A   Clear
1:15 PM 100.4 °F - 44.6 °F 15% 29.93 in 10.0 mi ESE 13.8 mph 17.3 mph N/A   Clear
1:35 PM 100.4 °F - 44.6 °F 15% 29.92 in 10.0 mi SE 8.1 mph 16.1 mph N/A   Partly Cloudy
1:55 PM 100.4 °F - 42.8 °F 14% 29.91 in 10.0 mi SSE 13.8 mph 17.3 mph N/A   Clear
2:15 PM 98.6 °F - 44.6 °F 16% 29.91 in 10.0 mi SSE 6.9 mph 16.1 mph N/A Thunderstorm Clear
2:35 PM 98.6 °F - 44.6 °F 16% 29.91 in 10.0 mi SSE 15.0 mph - N/A   Clear
2:55 PM 98.6 °F - 48.2 °F 18% 29.91 in 10.0 mi SSW 19.6 mph 25.3 mph N/A   Clear
3:15 PM 95.0 °F - 50.0 °F 22% 29.91 in 10.0 mi SSW 17.3 mph 25.3 mph N/A   Clear
3:35 PM 91.4 °F 89.1 °F 53.6 °F 28% 29.90 in 10.0 mi WSW 13.8 mph - N/A   Clear
3:55 PM 89.6 °F 87.3 °F 53.6 °F 29% 29.89 in 10.0 mi WSW 9.2 mph - N/A   Clear
4:15 PM 89.6 °F - 48.2 °F 24% 29.88 in 10.0 mi SW 9.2 mph - N/A Thunderstorm Clear
4:35 PM 91.4 °F - 48.2 °F 23% 29.88 in 10.0 mi SW 16.1 mph - N/A Thunderstorm Clear
4:55 PM 93.2 °F - 46.4 °F 20% 29.87 in 10.0 mi WSW 13.8 mph - N/A   Clear
5:15 PM 91.4 °F - 48.2 °F 23% 29.87 in 10.0 mi WSW 15.0 mph 20.7 mph N/A   Clear
5:35 PM 91.4 °F - 48.2 °F 23% 29.87 in 10.0 mi SW 17.3 mph 23.0 mph N/A   Clear
5:55 PM 87.8 °F - 51.8 °F 29% 29.88 in 10.0 mi SW 10.4 mph 20.7 mph N/A Thunderstorm Clear
6:15 PM 89.6 °F - 46.4 °F 22% 29.86 in 10.0 mi SSW 16.1 mph 23.0 mph N/A   Clear
6:35 PM 91.4 °F - 46.4 °F 21% 29.86 in 10.0 mi South 15.0 mph - N/A Thunderstorm Clear
6:55 PM 89.6 °F - 46.4 °F 22% 29.87 in 10.0 mi South 10.4 mph 17.3 mph N/A   Clear
7:15 PM 93.2 °F - 44.6 °F 19% 29.86 in 10.0 mi Calm Calm - N/A   Clear
7:35 PM 93.2 °F - 41.0 °F 16% 29.87 in 10.0 mi SSW 13.8 mph 24.2 mph N/A   Clear
7:55 PM 89.6 °F - 48.2 °F 24% 29.88 in 10.0 mi WSW 15.0 mph - N/A   Clear
8:15 PM 87.8 °F - 48.2 °F 25% 29.88 in 10.0 mi Calm Calm - N/A   Partly Cloudy
8:35 PM 87.8 °F - 48.2 °F 25% 29.90 in 10.0 mi South 4.6 mph - N/A   Clear
8:55 PM 87.8 °F - 48.2 °F 25% 29.89 in 10.0 mi WSW 11.5 mph - N/A   Clear
9:15 PM 87.8 °F - 48.2 °F 25% 29.89 in 10.0 mi SW 6.9 mph - N/A   Clear
9:35 PM 87.8 °F - 50.0 °F 27% 29.90 in 10.0 mi SW 10.4 mph - N/A   Clear
9:55 PM 86.0 °F - 50.0 °F 29% 29.90 in 10.0 mi SSW 9.2 mph - N/A   Clear
10:15 PM 87.8 °F - 50.0 °F 27% 29.90 in 10.0 mi West 5.8 mph - N/A   Clear
10:35 PM 87.8 °F - 50.0 °F 27% 29.91 in 10.0 mi South 4.6 mph - N/A   Clear
10:55 PM 87.8 °F - 50.0 °F 27% 29.91 in 10.0 mi South 6.9 mph - N/A   Clear
11:15 PM 86.0 °F - 50.0 °F 29% 29.92 in 10.0 mi SSW 8.1 mph - N/A   Clear
11:35 PM 86.0 °F - 48.2 °F 27% 29.93 in 10.0 mi SSW 11.5 mph - N/A Thunderstorm Clear
11:55 PM 87.8 °F - 46.4 °F 24% 29.93 in 10.0 mi SW 15.0 mph - N/A   Clear